| time (UTC) | temp F | wind direction | speed MPH | gust MPH | rain 1hr in | rain 24hr in | rain mn in | humidity % | barometer mb |
| 20260508235825 | 62 | 164 | 3.0 | 7.0 | 0.00 | 0.00 | 0.00 | 68 | 1013.1 |
| 20260508234819 | 62 | 101 | 3.0 | 7.0 | 0.00 | 0.00 | 0.00 | 67 | 1013.1 |
| 20260508233833 | 63 | 136 | 6.0 | 9.0 | 0.00 | 0.00 | 0.00 | 66 | 1013.2 |
| 20260508232832 | 63 | 205 | 2.0 | 9.0 | 0.00 | 0.00 | 0.00 | 65 | 1012.9 |
| 20260508231827 | 63 | 121 | 2.0 | 13.0 | 0.00 | 0.00 | 0.00 | 65 | 1012.9 |
| 20260508230832 | 64 | 161 | 2.0 | 16.0 | 0.00 | 0.00 | 0.00 | 64 | 1012.8 |
| 20260508225851 | 64 | 210 | 3.0 | 10.0 | 0.00 | 0.00 | 0.00 | 63 | 1012.6 |
| 20260508224828 | 65 | 211 | 4.0 | 10.0 | 0.00 | 0.00 | 0.00 | 62 | 1012.6 |
| 20260508223822 | 65 | 183 | 3.0 | 8.0 | 0.00 | 0.00 | 0.00 | 62 | 1012.7 |
| 20260508222836 | 65 | 122 | 6.0 | 16.0 | 0.00 | 0.00 | 0.00 | 61 | 1012.7 |
| 20260508221835 | 66 | 205 | 2.0 | 11.0 | 0.00 | 0.00 | 0.00 | 60 | 1012.7 |
| 20260508220839 | 66 | 170 | 6.0 | 15.0 | 0.00 | 0.00 | 0.00 | 59 | 1012.5 |
| 20260508215819 | 67 | 180 | 2.0 | 11.0 | 0.00 | 0.00 | 0.00 | 58 | 1012.4 |
| 20260508214834 | 67 | 66 | 3.0 | 11.0 | 0.00 | 0.00 | 0.00 | 58 | 1012.4 |
| 20260508213832 | 67 | 207 | 3.0 | 11.0 | 0.00 | 0.00 | 0.00 | 59 | 1012.7 |
| 20260508212826 | 67 | 182 | 4.0 | 13.0 | 0.00 | 0.00 | 0.00 | 58 | 1012.5 |
| 20260508211820 | 66 | 170 | 5.0 | 15.0 | 0.00 | 0.00 | 0.00 | 58 | 1012.5 |
| 20260508210849 | 66 | 198 | 8.0 | 14.0 | 0.00 | 0.00 | 0.00 | 58 | 1012.4 |
| 20260508205829 | 66 | 149 | 5.0 | 12.0 | 0.00 | 0.00 | 0.00 | 58 | 1012.6 |
| 20260508204823 | 66 | 242 | 3.0 | 12.0 | 0.00 | 0.00 | 0.00 | 57 | 1012.6 |
| 20260508203818 | 67 | 147 | 2.0 | 10.0 | 0.00 | 0.00 | 0.00 | 57 | 1012.7 |
| 20260508202837 | 66 | 113 | 5.0 | 12.0 | 0.00 | 0.00 | 0.00 | 57 | 1013.0 |
| 20260508201831 | 66 | 246 | 5.0 | 17.0 | 0.00 | 0.00 | 0.00 | 57 | 1013.0 |
| 20260508200854 | 66 | 118 | 6.0 | 15.0 | 0.00 | 0.00 | 0.00 | 56 | 1012.9 |
| 20260508195846 | 66 | 112 | 4.0 | 11.0 | 0.00 | 0.00 | 0.00 | 57 | 1013.5 |
| 20260508194840 | 66 | 132 | 4.0 | 10.0 | 0.00 | 0.00 | 0.00 | 58 | 1013.5 |
| 20260508193830 | 65 | 92 | 2.0 | 13.0 | 0.00 | 0.00 | 0.00 | 57 | 1013.5 |
| 20260508192843 | 66 | 136 | 1.0 | 16.0 | 0.00 | 0.00 | 0.00 | 56 | 1013.9 |
| 20260508191833 | 66 | 142 | 1.0 | 14.0 | 0.00 | 0.00 | 0.00 | 57 | 1013.9 |
| 20260508190901 | 66 | 165 | 2.0 | 13.0 | 0.00 | 0.00 | 0.00 | 56 | 1014.6 |
| 20260508185819 | 66 | 65 | 3.0 | 20.0 | 0.00 | 0.00 | 0.00 | 56 | 1014.9 |
| 20260508184833 | 66 | 153 | 4.0 | 9.0 | 0.00 | 0.00 | 0.00 | 56 | 1014.9 |
| 20260508183828 | 66 | 134 | 3.0 | 10.0 | 0.00 | 0.00 | 0.00 | 56 | 1015.3 |
| 20260508182828 | 66 | 130 | 1.0 | 13.0 | 0.00 | 0.00 | 0.00 | 56 | 1015.2 |
| 20260508181821 | 66 | 88 | 4.0 | 10.0 | 0.00 | 0.00 | 0.00 | 57 | 1015.2 |
| 20260508180847 | 66 | 123 | 1.0 | 14.0 | 0.00 | 0.00 | 0.00 | 56 | 1015.3 |
| 20260508175831 | 67 | 131 | 7.0 | 12.0 | 0.00 | 0.00 | 0.00 | 54 | 1015.6 |
| 20260508174825 | 66 | 153 | 5.0 | 11.0 | 0.00 | 0.00 | 0.00 | 52 | 1015.6 |
| 20260508173820 | 66 | 234 | 5.0 | 10.0 | 0.00 | 0.00 | 0.00 | 53 | 1015.1 |
| 20260508172833 | 65 | 138 | 3.0 | 10.0 | 0.00 | 0.00 | 0.00 | 54 | 1015.9 |
| 20260508171831 | 65 | 276 | 0.0 | 7.0 | 0.00 | 0.00 | 0.00 | 54 | 1015.9 |
| 20260508170835 | 66 | 151 | 0.0 | 7.0 | 0.00 | 0.00 | 0.00 | 52 | 1015.5 |
| 20260508165835 | 65 | 135 | 4.0 | 11.0 | 0.00 | 0.00 | 0.00 | 53 | 1015.7 |
| 20260508164834 | 65 | 184 | 1.0 | 11.0 | 0.00 | 0.00 | 0.00 | 53 | 1015.7 |
| 20260508163828 | 64 | 246 | 2.0 | 5.0 | 0.00 | 0.00 | 0.00 | 56 | 1015.8 |
| 20260508162822 | 64 | 137 | 4.0 | 8.0 | 0.00 | 0.00 | 0.00 | 54 | 1016.2 |
| 20260508161857 | 63 | 103 | 1.0 | 5.0 | 0.00 | 0.00 | 0.00 | 54 | 1016.2 |
| 20260508160901 | 63 | 121 | 2.0 | 7.0 | 0.00 | 0.00 | 0.00 | 55 | 1016.5 |
| 20260508155820 | 62 | 236 | 1.0 | 5.0 | 0.00 | 0.00 | 0.00 | 57 | 1016.8 |
| 20260508154854 | 61 | 24 | 2.0 | 4.0 | 0.00 | 0.00 | 0.00 | 56 | 1016.8 |
| 20260508153827 | 61 | 355 | 3.0 | 5.0 | 0.00 | 0.00 | 0.00 | 56 | 1017.1 |
| 20260508152825 | 60 | 17 | 2.0 | 4.0 | 0.00 | 0.01 | 0.00 | 55 | 1017.2 |
| 20260508151820 | 60 | 9 | 1.0 | 4.0 | 0.00 | 0.01 | 0.00 | 55 | 1017.2 |
| 20260508150845 | 59 | 36 | 0.0 | 5.0 | 0.00 | 0.01 | 0.00 | 58 | 1017.2 |
| 20260508145829 | 59 | 64 | 0.0 | 3.0 | 0.00 | 0.01 | 0.00 | 58 | 1017.6 |
| 20260508144824 | 58 | 38 | 0.0 | 4.0 | 0.00 | 0.01 | 0.00 | 58 | 1017.6 |
| 20260508143858 | 58 | 32 | 0.0 | 1.0 | 0.00 | 0.01 | 0.00 | 60 | 1017.6 |
| 20260508142831 | 58 | 32 | 1.0 | 3.0 | 0.00 | 0.01 | 0.00 | 59 | 1017.8 |
| 20260508141830 | 57 | 32 | 0.0 | 2.0 | 0.00 | 0.01 | 0.00 | 58 | 1017.8 |
| 20260508140835 | 56 | 32 | 1.0 | 3.0 | 0.00 | 0.01 | 0.00 | 60 | 1017.9 |
| 20260508135836 | 56 | 82 | 2.0 | 3.0 | 0.00 | 0.01 | 0.00 | 58 | 1017.8 |
| 20260508134830 | 56 | 133 | 1.0 | 2.0 | 0.00 | 0.01 | 0.00 | 66 | 1017.8 |
| 20260508133828 | 56 | 134 | 0.0 | 3.0 | 0.00 | 0.01 | 0.00 | 73 | 1017.9 |
| 20260508132822 | 56 | 133 | 0.0 | 3.0 | 0.00 | 0.01 | 0.00 | 77 | 1018.2 |
| 20260508131836 | 55 | 214 | 0.0 | 0.0 | 0.00 | 0.01 | 0.00 | 79 | 1018.2 |
| 20260508130905 | 53 | 214 | 0.0 | 1.0 | 0.00 | 0.01 | 0.00 | 86 | 1018.0 |
| 20260508125824 | 50 | 214 | 0.0 | 1.0 | 0.00 | 0.01 | 0.00 | 93 | 1018.1 |
| 20260508124837 | 49 | 214 | 0.0 | 1.0 | 0.00 | 0.01 | 0.00 | 94 | 1018.1 |
| 20260508123830 | 47 | 214 | 0.0 | 1.0 | 0.00 | 0.01 | 0.00 | 96 | 1017.5 |
| 20260508122847 | 46 | 214 | 0.0 | 1.0 | 0.00 | 0.02 | 0.00 | 97 | 1017.4 |
| 20260508121901 | 45 | 214 | 0.0 | 1.0 | 0.00 | 0.02 | 0.00 | 97 | 1017.4 |
| 20260508120844 | 44 | 214 | 0.0 | 0.0 | 0.00 | 0.02 | 0.00 | 97 | 1017.1 |
| 20260508115823 | 43 | 214 | 0.0 | 0.0 | 0.00 | 0.02 | 0.00 | 97 | 1017.0 |
| 20260508114822 | 42 | 214 | 0.0 | 0.0 | 0.00 | 0.02 | 0.00 | 97 | 1017.0 |
| 20260508113837 | 42 | 214 | 0.0 | 0.0 | 0.00 | 0.02 | 0.00 | 96 | 1017.0 |
| 20260508112851 | 41 | 214 | 0.0 | 0.0 | 0.00 | 0.15 | 0.00 | 96 | 1016.6 |
| 20260508111823 | 41 | 214 | 0.0 | 0.0 | 0.00 | 0.15 | 0.00 | 96 | 1016.6 |
| 20260508110833 | 41 | 214 | 0.0 | 0.0 | 0.00 | 0.15 | 0.00 | 96 | 1016.4 |
| 20260508105833 | 41 | 214 | 0.0 | 0.0 | 0.00 | 0.15 | 0.00 | 96 | 1016.1 |
| 20260508104847 | 41 | 214 | 0.0 | 0.0 | 0.00 | 0.15 | 0.00 | 96 | 1016.1 |
| 20260508103820 | 41 | 214 | 0.0 | 0.0 | 0.00 | 0.15 | 0.00 | 96 | 1015.9 |
| 20260508102818 | 41 | 215 | 0.0 | 0.0 | 0.00 | 0.16 | 0.00 | 96 | 1015.9 |
| 20260508101832 | 41 | 214 | 0.0 | 0.0 | 0.00 | 0.16 | 0.00 | 96 | 1015.9 |
| 20260508100858 | 41 | 214 | 0.0 | 0.0 | 0.00 | 0.16 | 0.00 | 96 | 1015.7 |
| 20260508095820 | 42 | 215 | 0.0 | 0.0 | 0.00 | 0.16 | 0.00 | 96 | 1015.3 |
| 20260508094854 | 42 | 215 | 0.0 | 0.0 | 0.00 | 0.16 | 0.00 | 96 | 1015.3 |
| 20260508093847 | 42 | 215 | 0.0 | 0.0 | 0.00 | 0.16 | 0.00 | 96 | 1015.3 |
| 20260508092820 | 42 | 215 | 0.0 | 0.0 | 0.00 | 0.16 | 0.00 | 96 | 1015.4 |
| 20260508091855 | 43 | 214 | 0.0 | 0.0 | 0.00 | 0.16 | 0.00 | 96 | 1015.4 |
| 20260508090843 | 43 | 215 | 0.0 | 0.0 | 0.00 | 0.16 | 0.00 | 96 | 1015.9 |
| 20260508085824 | 43 | 214 | 0.0 | 0.0 | 0.00 | 0.16 | 0.00 | 96 | 1015.9 |
| 20260508084838 | 43 | 214 | 0.0 | 0.0 | 0.00 | 0.16 | 0.00 | 96 | 1015.9 |
| 20260508083836 | 44 | 214 | 0.0 | 0.0 | 0.00 | 0.16 | 0.00 | 95 | 1015.7 |
| 20260508082830 | 44 | 214 | 0.0 | 0.0 | 0.00 | 0.16 | 0.00 | 96 | 1015.4 |
| 20260508081844 | 44 | 215 | 0.0 | 0.0 | 0.00 | 0.16 | 0.00 | 95 | 1015.4 |
| 20260508080848 | 44 | 215 | 0.0 | 1.0 | 0.00 | 0.16 | 0.00 | 95 | 1015.4 |
| 20260508075852 | 45 | 215 | 0.0 | 0.0 | 0.00 | 0.16 | 0.00 | 95 | 1015.1 |
| 20260508074825 | 45 | 215 | 0.0 | 0.0 | 0.00 | 0.16 | 0.00 | 95 | 1015.1 |
| 20260508073859 | 45 | 214 | 0.0 | 0.0 | 0.00 | 0.16 | 0.00 | 95 | 1015.2 |
| 20260508072832 | 46 | 214 | 0.0 | 1.0 | 0.00 | 0.17 | 0.00 | 96 | 1015.0 |
| 20260508071830 | 46 | 215 | 0.0 | 0.0 | 0.00 | 0.17 | 0.00 | 96 | 1015.0 |
| 20260508070835 | 46 | 215 | 0.0 | 0.0 | 0.00 | 0.17 | 0.00 | 96 | 1014.7 |
| 20260508065831 | 46 | 215 | 0.0 | 1.0 | 0.00 | 0.17 | 0.00 | 96 | 1014.7 |
| 20260508064826 | 46 | 259 | 0.0 | 1.0 | 0.00 | 0.17 | 0.00 | 96 | 1014.7 |
| 20260508063824 | 46 | 259 | 0.0 | 0.0 | 0.00 | 0.17 | 0.00 | 96 | 1014.7 |
| 20260508062818 | 46 | 259 | 0.0 | 0.0 | 0.00 | 0.17 | 0.00 | 96 | 1014.7 |
| 20260508061831 | 46 | 259 | 0.0 | 0.0 | 0.00 | 0.17 | 0.00 | 96 | 1014.7 |
| 20260508060841 | 46 | 259 | 0.0 | 0.0 | 0.00 | 0.17 | 0.00 | 96 | 1014.7 |
| 20260508055820 | 46 | 259 | 0.0 | 0.0 | 0.00 | 0.17 | 0.00 | 96 | 1014.8 |
| 20260508054835 | 47 | 259 | 0.0 | 0.0 | 0.00 | 0.17 | 0.00 | 96 | 1014.8 |
| 20260508053829 | 47 | 259 | 0.0 | 0.0 | 0.00 | 0.17 | 0.00 | 96 | 1014.9 |
| 20260508052828 | 47 | 259 | 0.0 | 0.0 | 0.00 | 0.23 | 0.00 | 96 | 1015.0 |
| 20260508051821 | 47 | 259 | 0.0 | 0.0 | 0.00 | 0.23 | 0.00 | 96 | 1015.0 |
| 20260508050847 | 47 | 259 | 0.0 | 1.0 | 0.00 | 0.23 | 0.00 | 96 | 1014.8 |
| 20260508045831 | 46 | 259 | 0.0 | 1.0 | 0.00 | 0.23 | 0.00 | 96 | 1014.7 |
| 20260508044826 | 46 | 259 | 0.0 | 0.0 | 0.00 | 0.23 | 0.00 | 96 | 1014.7 |
| 20260508043821 | 46 | 259 | 0.0 | 0.0 | 0.00 | 0.23 | 0.00 | 96 | 1014.7 |
| 20260508042819 | 46 | 259 | 0.0 | 0.0 | 0.00 | 0.27 | 0.00 | 96 | 1014.7 |
| 20260508041834 | 46 | 259 | 1.0 | 2.0 | 0.00 | 0.27 | 0.00 | 96 | 1014.7 |
| 20260508040838 | 46 | 49 | 0.0 | 0.0 | 0.00 | 0.27 | 0.00 | 96 | 1014.7 |
| 20260508035819 | 46 | 49 | 0.0 | 0.0 | 0.00 | 0.27 | 0.24 | 95 | 1014.7 |
| 20260508034818 | 46 | 49 | 0.0 | 0.0 | 0.00 | 0.27 | 0.24 | 95 | 1014.7 |
| 20260508033832 | 47 | 49 | 0.0 | 0.0 | 0.00 | 0.27 | 0.24 | 95 | 1014.7 |
| 20260508032826 | 47 | 49 | 0.0 | 0.0 | 0.00 | 0.27 | 0.24 | 95 | 1014.8 |
| 20260508031824 | 47 | 49 | 0.0 | 0.0 | 0.00 | 0.27 | 0.24 | 95 | 1014.8 |
| 20260508030849 | 47 | 49 | 0.0 | 0.0 | 0.00 | 0.27 | 0.24 | 95 | 1014.7 |
| 20260508025830 | 47 | 49 | 0.0 | 0.0 | 0.00 | 0.27 | 0.24 | 95 | 1014.8 |
| 20260508024824 | 47 | 49 | 0.0 | 0.0 | 0.00 | 0.27 | 0.24 | 95 | 1014.8 |
| 20260508023843 | 48 | 49 | 0.0 | 1.0 | 0.00 | 0.27 | 0.24 | 95 | 1014.5 |
| 20260508022836 | 48 | 49 | 0.0 | 1.0 | 0.00 | 0.30 | 0.24 | 95 | 1014.1 |
| 20260508021831 | 48 | 49 | 0.0 | 0.0 | 0.00 | 0.30 | 0.24 | 94 | 1014.1 |
| 20260508020835 | 48 | 49 | 0.0 | 1.0 | 0.00 | 0.30 | 0.24 | 94 | 1014.0 |
| 20260508015819 | 49 | 49 | 0.0 | 0.0 | 0.00 | 0.30 | 0.24 | 93 | 1014.8 |
| 20260508014834 | 49 | 49 | 0.0 | 0.0 | 0.00 | 0.30 | 0.24 | 93 | 1014.8 |
| 20260508013848 | 49 | 49 | 0.0 | 0.0 | 0.00 | 0.30 | 0.24 | 93 | 1014.5 |
| 20260508012840 | 50 | 49 | 0.0 | 1.0 | 0.00 | 0.33 | 0.24 | 93 | 1014.3 |
| 20260508011817 | 50 | 49 | 1.0 | 2.0 | 0.00 | 0.33 | 0.24 | 92 | 1014.3 |
| 20260508010842 | 51 | 49 | 0.0 | 0.0 | 0.00 | 0.33 | 0.24 | 91 | 1014.2 |
| 20260508005823 | 51 | 49 | 0.0 | 1.0 | 0.00 | 0.33 | 0.24 | 90 | 1014.2 |
| 20260508004821 | 52 | 49 | 0.0 | 0.0 | 0.00 | 0.33 | 0.24 | 90 | 1014.2 |
| 20260508003836 | 53 | 49 | 0.0 | 0.0 | 0.00 | 0.33 | 0.24 | 89 | 1013.8 |
| 20260508002830 | 53 | 49 | 0.0 | 0.0 | 0.00 | 0.40 | 0.24 | 88 | 1013.6 |
| 20260508001824 | 54 | 49 | 0.0 | 1.0 | 0.00 | 0.40 | 0.24 | 85 | 1013.6 |
| 20260508000833 | 54 | 49 | 0.0 | 4.0 | 0.00 | 0.40 | 0.24 | 85 | 1013.5 |